Regional Weather Roundup
Issued by NWS

Home | Current Version | Previous Version | Graphics & Text | Print | Product List | Glossary On
Versions: 1 2 3 4 5 6 7 8 9 10 11 12 13 14 15 16 17 18 19 20 21 22 23 24 25 26 27
000
ASUS45 KSLC 200410
RWRUT

UTAH REGIONAL WEATHER ROUNDUP
NATIONAL WEATHER SERVICE SALT LAKE CITY UT
900 PM MST THU JAN 19 2017

UTZ001>011-023>025-200500-

NORTHERN UTAH

CITY           SKY/WX    TMP DP  RH WIND       PRES   REMARKS
BRIGHAM CITY     N/A     30  28  92 CALM      29.73S
HILL AFB       FOG       32  30  93 CALM      29.70F VSB 1/4
LOGAN          FOG       27  27 100 CALM      29.71F VSB 1
OGDEN          FOG       28  28 100 CALM      29.70F VSB 3/4
SALT LAKE CITY CLOUDY    31  29  92 CALM      29.72S FOG
TOOELE VALLEY  CLOUDY    28  28 100 CALM      29.73F FOG
WENDOVER       CLOUDY    21  18  86 E3        29.72F
HEBER CITY     LGT SNOW  30  30 100 CALM      29.66S VSB 1
WEST JORDAN    CLOUDY    31  31 100 NW6       29.71F VSB 1/4 WCI  26

$$

UTZ011>015-024>027-200500-

CENTRAL/NORTHEAST UTAH

CITY           SKY/WX    TMP DP  RH WIND       PRES   REMARKS
PROVO AIRPORT  MIX PCPN  32  30  92 CALM      29.72R VSB 3/4
MOAB/CANYONLAN LGT SNOW  31  31 100 NW9       29.69F FOG     WCI  23
DELTA          CLOUDY    32  32 100 NW3       29.70S VSB 1/4
PRICE          LGT SNOW  28  28 100 CALM      29.67F FOG
RICHFIELD      CLOUDY    34  34 100 N2        29.69F FOG
ROOSEVELT      CLOUDY    19  14  79 CALM      29.78S FOG
VERNAL         LGT SNOW  18  14  84 CALM      29.74S FOG

$$

UTZ013>016-019>022-027-200500-

SOUTHERN UTAH

CITY           SKY/WX    TMP DP  RH WIND       PRES   REMARKS
BRYCE CANYON   LGT SNOW  27  25  92 SE9       29.68F VSB 1   WCI  18
CEDAR CITY     LGT SNOW  31  29  92 S10       29.69S VSB 1   WCI  22
MILFORD        CLOUDY    33  32  96 S15       29.68S WCI  23
ST GEORGE      CLOUDY    39  34  81 W6        29.80R WCI  35
HANKSVILLE     CLOUDY    32  30  93 MISG      29.72F
KANAB          CLOUDY    34  34 100 SW8       29.78F FOG     WCI  27
BLANDING       CLOUDY    31  31 100 SE5       29.80F VSB 1   WCI  27

$$

REGIONAL REPORTS     COLORADO/ARIZONA

CITY           SKY/WX    TMP DP  RH WIND       PRES   REMARKS
CRAIG, CO      LGT SNOW  28  25  88 NE3       29.68F FOG
GRAND JUNCTION LGT SNOW  31  31 100 E5        29.70F FOG     WCI  26
RIFLE, CO      LGT SNOW  30  30 100 CALM      29.70F FOG
MONTROSE, CO   CLOUDY    31  31 100 CALM      29.73S FOG
CORTEZ, CO     LGT SNOW  32  32 100 CALM      29.75F FOG
COLORADO CITY  LGT SNOW  34  34 100 NE6       29.77F VSB 3/4 WCI  29
PAGE, AZ       CLOUDY    39  34  82 W3        29.72F
GRAND CANYON   CLOUDY    27  27 100 SW12      29.79S WCI  17
KINGMAN, AZ    LGT RAIN  37  34  89 S6        29.81S FOG     WCI  32
FLAGSTAFF, AZ  SNOW      28  27  96 SW17G26   29.79S VSB 1/4 WCI  16

$$

REGIONAL REPORTS    NEVADA/IDAHO/WYOMING

CITY           SKY/WX    TMP DP  RH WIND       PRES   REMARKS
LAS VEGAS, NV  PTCLDY    52  34  50 SW8       29.74S
ELY, NY        MOCLDY    16  14  92 CALM      29.70S
ELKO, NV       CLEAR     22  19  89 CALM      29.69F
POCATELLO, ID  MOCLDY    31  25  78 S5        29.67S WCI  26
BURLEY, ID     MIX PCPN  35  32  88 S10       29.67S WCI  27
FORT BRIDGER,  CLOUDY    28  28 100 W8        29.68F WCI  20
EVANSTON, WY   LGT SNOW  27  24  89 W3        29.66S FOG
ROCK SPRINGS,  CLOUDY    20  18  92 SW7       29.64F FOG     WCI  11

$$




USA.gov is the U.S. government's official web portal to all federal, state and local government web resources and services.